EN

Hourly Weather Kryvopillya

Today, 18 May, Tuesday

Time Temperature Precipitation Wind Pressure Humidity
00:00 +11°C° 0 mm 1 mps 672 mmHg 93%
01:00 +11°C° 0 mm 1 mps 671 mmHg 92%
02:00 +9°C° 0 mm 2 mps 671 mmHg 91%
03:00 +8°C° 0.3 mm 2 mps 670 mmHg 100%
04:00 +9°C° 0.2 mm 1 mps 670 mmHg 100%
05:00 +8°C° 0.1 mm 2 mps 669 mmHg 100%
06:00 +7°C° 0 mm 2 mps 669 mmHg 100%
07:00 +9°C° 0 mm 1 mps 670 mmHg 100%
08:00 +9°C° 0 mm 1 mps 670 mmHg 100%
09:00 +9°C° 0 mm 1 mps 670 mmHg 100%
10:00 +10°C° 0 mm 1 mps 670 mmHg 100%
11:00 +10°C° 0.2 mm 2 mps 671 mmHg 100%
12:00 +12°C° 0.1 mm 3 mps 671 mmHg 96%
13:00 +13°C° 0 mm 4 mps 671 mmHg 93%
14:00 +13°C° 0 mm 5 mps 671 mmHg 94%
15:00 +10°C° 0.1 mm 7 mps 671 mmHg 100%
16:00 +10°C° 2.3 mm 5 mps 670 mmHg 100%
17:00 +10°C° 0 mm 6 mps 671 mmHg 98%
18:00 +9°C° 0.3 mm 5 mps 671 mmHg 100%
19:00 +9°C° 3.9 mm 7 mps 671 mmHg 100%
20:00 +7°C° 0.3 mm 8 mps 672 mmHg 100%
21:00 +8°C° 0.1 mm 7 mps 672 mmHg 100%
22:00 +8°C° 0 mm 7 mps 672 mmHg 100%
23:00 +7°C° 0.1 mm 8 mps 673 mmHg 100%

Tomorrow, 19 May, Wednesday

Time Temperature Precipitation Wind Pressure Humidity
00:00 +7°C° 0 mm 8 mps 673 mmHg 100%
01:00 +6°C° 0 mm 8 mps 673 mmHg 100%
02:00 +6°C° 0.1 mm 7 mps 673 mmHg 100%
03:00 +6°C° 0 mm 7 mps 673 mmHg 100%
04:00 +6°C° 0 mm 7 mps 673 mmHg 100%
05:00 +6°C° 0 mm 7 mps 673 mmHg 100%
06:00 +6°C° 0 mm 7 mps 673 mmHg 100%
07:00 +7°C° 0 mm 6 mps 674 mmHg 100%
08:00 +8°C° 0 mm 6 mps 675 mmHg 100%
09:00 +10°C° 0 mm 6 mps 675 mmHg 100%
10:00 +10°C° 0 mm 6 mps 676 mmHg 100%
11:00 +11°C° 0 mm 6 mps 676 mmHg 100%
12:00 +13°C° 0 mm 6 mps 677 mmHg 95%
13:00 +12°C° 0.1 mm 5 mps 676 mmHg 99%
14:00 +13°C° 0 mm 5 mps 676 mmHg 92%
15:00 +14°C° 0 mm 5 mps 676 mmHg 90%
16:00 +14°C° 0 mm 4 mps 676 mmHg 90%
17:00 +13°C° 0 mm 4 mps 676 mmHg 89%
18:00 +14°C° 0 mm 2 mps 676 mmHg 91%
19:00 +13°C° 0 mm 2 mps 675 mmHg 94%
20:00 +12°C° 0.5 mm 2 mps 676 mmHg 100%
21:00 +11°C° 1 mm 1 mps 676 mmHg 100%
22:00 +10°C° 1.1 mm 1 mps 675 mmHg 100%
23:00 +10°C° 0 mm 1 mps 675 mmHg 100%

Day after tomorrow, 20 May, Thursday

Time Temperature Precipitation Wind Pressure Humidity
00:00 +10°C° 0 mm 1 mps 675 mmHg 100%
01:00 +10°C° 0 mm 1 mps 674 mmHg 100%
02:00 +9°C° 0 mm 2 mps 674 mmHg 100%
03:00 +9°C° 0.1 mm 2 mps 673 mmHg 100%
04:00 +9°C° 0.1 mm 3 mps 673 mmHg 100%
05:00 +7°C° 0.8 mm 4 mps 673 mmHg 100%
06:00 +7°C° 3.3 mm 4 mps 674 mmHg 100%
07:00 +8°C° 1.4 mm 3 mps 674 mmHg 100%
08:00 +8°C° 3.4 mm 3 mps 674 mmHg 100%
09:00 +8°C° 2.2 mm 3 mps 674 mmHg 100%
10:00 +10°C° 0.8 mm 2 mps 674 mmHg 100%
11:00 +10°C° 0 mm 4 mps 674 mmHg 100%
12:00 +10°C° 0.4 mm 4 mps 675 mmHg 100%
13:00 +10°C° 0 mm 4 mps 674 mmHg 100%
14:00 +9°C° 0 mm 5 mps 674 mmHg 100%
15:00 +11°C° 0 mm 4 mps 674 mmHg 100%
16:00 +9°C° 0.7 mm 5 mps 674 mmHg 100%
17:00 +9°C° 0.6 mm 7 mps 674 mmHg 100%
18:00 +7°C° 3.5 mm 4 mps 674 mmHg 100%
19:00 +5°C° 10.2 mm 3 mps 674 mmHg 100%
20:00 +7°C° 5 mm 3 mps 675 mmHg 100%
21:00 +6°C° 3.3 mm 5 mps 675 mmHg 100%
22:00 +6°C° 3.9 mm 4 mps 675 mmHg 100%
23:00 +7°C° 3.4 mm 5 mps 676 mmHg 100%

21 May, Friday

Time Temperature Precipitation Wind Pressure Humidity
00:00 +7°C° 1.7 mm 5 mps 676 mmHg 100%
01:00 +6°C° 1.3 mm 7 mps 676 mmHg 100%
02:00 +5°C° 0.1 mm 6 mps 677 mmHg 100%
03:00 +6°C° 0.1 mm 5 mps 677 mmHg 100%
04:00 +5°C° 0.1 mm 6 mps 678 mmHg 100%
05:00 +6°C° 0.2 mm 5 mps 678 mmHg 100%
06:00 +5°C° 0.5 mm 5 mps 679 mmHg 100%
07:00 +5°C° 0.1 mm 5 mps 680 mmHg 100%
08:00 +5°C° 0.1 mm 4 mps 680 mmHg 100%
09:00 +5°C° 0.1 mm 4 mps 681 mmHg 100%
10:00 +7°C° 0 mm 3 mps 681 mmHg 100%
11:00 +7°C° 0 mm 3 mps 682 mmHg 100%
12:00 +7°C° 0 mm 4 mps 683 mmHg 100%
13:00 +8°C° 0 mm 4 mps 683 mmHg 100%
14:00 +10°C° 0 mm 4 mps 684 mmHg 100%
15:00 +11°C° 0.1 mm 4 mps 684 mmHg 97%
16:00 +11°C° 0 mm 4 mps 683 mmHg 96%
17:00 +10°C° 0.5 mm 3 mps 684 mmHg 100%
18:00 +10°C° 0.1 mm 3 mps 683 mmHg 100%
19:00 +10°C° 0.2 mm 3 mps 683 mmHg 100%
20:00 +9°C° 0 mm 2 mps 684 mmHg 100%
21:00 +8°C° 0 mm 2 mps 684 mmHg 100%
22:00 +9°C° 0 mm 1 mps 683 mmHg 100%
23:00 +8°C° 0 mm 1 mps 683 mmHg 100%

22 May, Saturday

Time Temperature Precipitation Wind Pressure Humidity
00:00 +8°C° 0 mm 1 mps 683 mmHg 100%
01:00 +8°C° 0 mm 1 mps 682 mmHg 100%
02:00 +8°C° 0 mm 1 mps 683 mmHg 94%
03:00 +7°C° 0 mm 0 mps 682 mmHg 89%
04:00 +7°C° 0 mm 1 mps 682 mmHg 88%
05:00 +7°C° 0 mm 1 mps 682 mmHg 88%
06:00 +7°C° 0 mm 1 mps 682 mmHg 92%
07:00 +8°C° 0 mm 1 mps 683 mmHg 99%
08:00 +9°C° 0 mm 2 mps 683 mmHg 99%
09:00 +10°C° 0 mm 2 mps 683 mmHg 94%
10:00 +12°C° 0 mm 2 mps 684 mmHg 89%
11:00 +14°C° 0 mm 2 mps 684 mmHg 88%
12:00 +15°C° 0 mm 2 mps 684 mmHg 85%
13:00 +15°C° 0 mm 2 mps 684 mmHg 88%
14:00 +16°C° 0 mm 2 mps 684 mmHg 92%
15:00 +15°C° 0.5 mm 2 mps 684 mmHg 98%
16:00 +16°C° 0.1 mm 1 mps 684 mmHg 95%
17:00 +16°C° 0.1 mm 1 mps 684 mmHg 90%
18:00 +16°C° 0 mm 1 mps 684 mmHg 87%
19:00 +15°C° 0 mm 1 mps 683 mmHg 95%
20:00 +14°C° 0 mm 1 mps 683 mmHg 100%
21:00 +13°C° 0 mm 1 mps 683 mmHg 100%
22:00 +12°C° 0 mm 1 mps 682 mmHg 100%
23:00 +12°C° 0 mm 1 mps 683 mmHg 81%

23 May, Sunday

Time Temperature Precipitation Wind Pressure Humidity
00:00 +12°C° 0 mm 1 mps 683 mmHg 69%
01:00 +12°C° 0 mm 1 mps 682 mmHg 67%
02:00 +12°C° 0 mm 1 mps 682 mmHg 69%
03:00 +12°C° 0 mm 2 mps 682 mmHg 77%
04:00 +10°C° 0 mm 2 mps 682 mmHg 87%
05:00 +10°C° 0 mm 2 mps 681 mmHg 88%
06:00 +10°C° 0 mm 2 mps 681 mmHg 88%
07:00 +12°C° 0 mm 2 mps 682 mmHg 88%
08:00 +13°C° 0 mm 1 mps 682 mmHg 84%
09:00 +14°C° 0 mm 2 mps 683 mmHg 86%
10:00 +15°C° 0 mm 2 mps 684 mmHg 90%
11:00 +16°C° 0 mm 3 mps 684 mmHg 92%
12:00 +16°C° 0 mm 3 mps 685 mmHg 92%
13:00 +16°C° 0.1 mm 3 mps 684 mmHg 96%
14:00 +16°C° 0.8 mm 2 mps 684 mmHg 99%
15:00 +16°C° 1.3 mm 2 mps 684 mmHg 100%
16:00 +18°C° 0.9 mm 1 mps 684 mmHg 98%
17:00 +17°C° 0.1 mm 2 mps 684 mmHg 98%
18:00 +17°C° 0 mm 2 mps 684 mmHg 98%
19:00 +16°C° 0.2 mm 1 mps 683 mmHg 97%
20:00 +15°C° 0 mm 1 mps 683 mmHg 100%
21:00 +14°C° 0 mm 0 mps 683 mmHg 100%
22:00 +13°C° 0 mm 0 mps 683 mmHg 100%
23:00 +14°C° 0 mm 1 mps 683 mmHg 100%
Show more

We Need Your Consent

Meteoprog and our Service Providers may store and access personal data such as cookies, device identifiers or other similar technologies on your device and process such data to personalise content and ads, as well as provide social media features and to analyse the traffic.

  • Store and/or access information on your device

    Cookies, device identifiers or other information can be stored or accessed on your device for the purposes indicated above.

  • Personalised ads and content, ad and content measurement, audience insights, and products development

    Ads and content can be personalised based on a profile. More data can be added to better personalise ads and content. Ad and content performance can be measured. Insights about the audience who saw the ads and content can be derived. Such data can be used to develop or improve user’s experience, systems and software.

By clicking ‘I Agree’ you will allow the use of indicated cookies, device identifiers, web beacons or other similar technologies. Your settings can be changed in the browser on your device.

For certain purposes, legitimate interests may be relied on, rather than consent. You can read more about this in our Privacy and Cookie Policy.